Flag for United Kingdom Weather past 2 weeks in Belfast, Northern Ireland, United Kingdom

Now
43 °F

Sunny.


Feels Like: 41 °F
Forecast: 41 / 50 °F
Wind: 3 mph from North

Location: Belfast / Harbour

Current Time: Apr 2, 2015 at 11:04:42 AM

Latest Report: Apr 2, 2015 at 10:20 AM


Visibility: 10 mi

Pressure: 30.15 "Hg

Humidity: 61%

Dew point: 30 °F

Location of BelfastLocation

Historic Weather in Belfast — Graph

°F

Belfast temperature yesterday

Maximum temperature yesterday: 46 °F (at 1:50 PM)
Minimum temperature yesterday: 37 °F (at 6:50 AM)
Average temperature yesterday: 43 °F

Past Weeks' High & Low Weather Summary

 TemperatureHumidityPressure
High57 °F (Mar 19, 2:50 PM)100% (Mar 18, 8:20 AM)30.60 "Hg (Mar 18, 8:20 AM)
Low32 °F (Mar 18, 8:20 AM)38% (Mar 19, 1:50 PM)29.15 "Hg (Mar 30, 8:50 PM)
Average46 °F69%29.96 "Hg
* Reported Mar 18 8:20 AM — Apr 2 9:50 AM, Belfast, Weather by CustomWeather, © 2015

Note: Actual official high and low records may vary slightly from our data, if they occured in-between our weather recording intervals... More about our weather records

Advertising

Belfast weather history for previous 24 hours

 ConditionsComfort  
Time TempWeatherWind HumidityBarometerVisibility
9:50 AM
Thu, Apr 2
43 °FSunny.5 mph61%30.15 "Hg10 mi
9:20 AM43 °FSunny.3 mph66%30.15 "Hg10 mi
8:50 AM41 °FSunny.2 mph70%30.15 "Hg10 mi
8:20 AM41 °FSunny.2 mph76%30.15 "Hg10 mi
7:50 AM41 °FPassing clouds.2 mph76%30.12 "HgN/A
7:20 AM39 °FPassing clouds.No wind81%30.12 "HgN/A
6:50 AM39 °FClear.No wind81%30.12 "Hg10 mi
6:20 AM39 °FClear.5 mph81%30.12 "Hg10 mi
10:20 PM
Wed, Apr 1
41 °FLight rain. Passing clouds.5 mph87%30.04 "HgN/A
9:50 PM41 °FLight rain. Passing clouds.3 mph87%30.04 "HgN/A
9:20 PM41 °FLight rain. Passing clouds.2 mph87%30.04 "HgN/A
8:50 PM41 °FLight rain. Partly sunny.5 mph81%30.04 "HgN/A
8:20 PM43 °FLight rain. Partly sunny.5 mph81%30.04 "HgN/A
7:50 PM43 °FLight rain. Partly sunny.3 mph81%30.04 "HgN/A
7:20 PM43 °FLight rain. Broken clouds.3 mph81%30.04 "HgN/A
6:50 PM45 °FLight rain. Broken clouds.8 mph81%30.04 "HgN/A
6:20 PM45 °FLight rain. Broken clouds.7 mph81%30.04 "HgN/A
5:50 PM45 °FLight rain. Broken clouds.8 mph81%30.04 "HgN/A
5:20 PM45 °FSprinkles. Broken clouds.14 mph81%30.07 "HgN/A
4:50 PM45 °FSprinkles. Broken clouds.12 mph81%30.07 "HgN/A
4:20 PM45 °FSprinkles. Broken clouds.12 mph81%30.07 "HgN/A
3:50 PM45 °FSprinkles. Broken clouds.10 mph81%30.09 "HgN/A
3:20 PM45 °FSprinkles. Scattered clouds.16 mph81%30.09 "HgN/A
2:50 PM46 °FSprinkles. Scattered clouds.16 mph71%30.09 "HgN/A
2:20 PM46 °FSprinkles. Scattered clouds.16 mph71%30.09 "HgN/A
1:50 PM46 °FSprinkles. Scattered clouds.16 mph71%30.12 "HgN/A
1:20 PM45 °FSprinkles. Scattered clouds.17 mph76%30.12 "HgN/A
12:50 PM45 °FScattered showers. Broken clouds.16 mph76%30.12 "HgN/A
12:20 PM45 °FScattered showers. Broken clouds.15 mph76%30.15 "HgN/A
11:50 AM45 °FSprinkles. Broken clouds.17 mph71%30.15 "HgN/A
11:20 AM43 °FScattered clouds.18 mph76%30.15 "HgN/A
Weather by CustomWeather, © 2015

See weather overviewHow to use our weather pages